Location: Unspecified
(52.1971°N, 0.0000°E)
Time: 03:53:36
(UTC+00:00)

ISS - Pass Details

Date: 25 May 2019
Orbit: 408 x 418 km, 51.6° (Epoch: 16 June)

Event Time Altitude Azimuth Distance (km) Brightness Sun altitude
Rises 21:20:37 0° 270° (W) 2,355 0.6 -9.2°
Reaches altitude 10° 21:22:42 10° 270° (W) 1,494 -0.4 -9.4°
Maximum altitude 21:26:03 83° 184° (S) 426 -3.8 -9.7°
Drops below altitude 10° 21:29:26 10° 95° (E) 1,500 -1.3 -10.0°
Enters shadow 21:30:22 - 95° (E) 1,888 -0.8 -10.1°
